Wind_Speed
77 85 89 87 85 82 75 78 78 75 79 84 84 82 79 77 73 72 70 69 67 65 63 62 61 60 59 57 57 58 57 54 50 46 47 48 46 42 40 39 38 35 32 30 28 26 27 30 32 33 34 36 36 34 31 28 28 28 27 26 25 25 24 22 21 19 17 17 16 15 15 14 14 14 14 13 13 12 12 13 13 13 13 12 13 14 15 16
76 83 87 88 86 82 77 77 77 74 77 82 84 83 79 78 75 72 71 71 68 67 64 63 62 61 60 59 58 60 59 57 54 49 47 49 49 45 43 41 39 37 33 29 27 27 27 28 31 32 34 36 36 35 33 30 29 29 28 27 26 26 25 22 21 19 18 17 16 16 16 15 15 14 14 14 13 13 13 13 14 14 13 13 13 14 15 15
74 83 86 88 87 80 77 77 76 73 74 79 82 83 81 78 77 73 72 72 70 68 65 63 63 62 61 61 60 61 61 59 57 52 49 50 51 49 47 44 41 39 35 30 30 29 28 29 30 32 33 35 35 35 35 32 30 29 28 28 27 26 25 23 21 20 19 18 17 17 17 17 16 15 15 15 15 15 14 14 13 13 12 13 14 14 15 16
71 79 85 87 89 80 75 75 72 70 72 76 80 82 82 80 77 75 73 72 71 69 66 64 63 62 62 61 61 62 62 61 58 54 51 52 52 50 49 46 43 41 37 33 33 31 29 30 31 32 34 34 35 37 36 34 32 29 28 28 27 26 26 24 22 21 20 19 18 18 18 18 17 17 16 16 17 16 15 14 13 12 13 13 14 14 14 15
73 75 81 84 91 85 74 73 69 68 73 75 77 81 82 81 77 75 74 72 72 70 68 66 64 63 62 62 62 62 63 63 59 55 53 52 52 51 50 49 44 43 40 36 35 33 32 32 31 32 34 34 35 36 36 34 33 30 28 27 27 26 26 25 24 22 21 20 19 19 19 18 18 18 17 18 18 17 16 14 14 15 14 14 14 15 15 15
79 71 76 80 88 89 76 73 69 65 72 72 73 80 81 81 78 75 75 73 72 71 70 67 66 65 64 63 63 63 63 63 59 57 56 53 51 50 51 50 47 44 42 40 38 36 34 32 31 31 32 34 35 35 35 35 34 32 30 28 28 28 27 26 25 24 23 22 20 20 20 19 19 18 18 19 18 16 16 16 16 17 17 16 17 17 17 16
87 70 73 80 82 89 81 74 71 64 69 71 69 77 81 80 78 75 74 74 73 72 71 69 67 66 65 65 64 64 63 62 60 59 58 56 52 49 50 51 49 46 43 41 40 37 35 32 31 30 31 35 36 36 36 37 35 33 32 31 30 29 28 28 26 25 24 23 22 21 20 20 20 19 18 19 17 16 17 17 18 18 19 18 18 18 18 17
93 73 75 82 77 85 86 77 75 67 67 72 70 72 78 79 77 76 75 74 73 72 71 70 68 67 66 66 65 65 64 62 62 61 60 59 55 50 50 51 50 48 45 42 41 38 36 33 31 31 31 34 37 38 39 39 38 35 33 32 31 30 29 29 28 27 26 24 23 22 21 21 21 20 20 18 16 16 17 17 18 18 19 19 18 18 18 18
96 77 76 84 78 81 86 82 79 72 67 70 72 70 75 79 76 75 75 74 72 71 72 71 69 68 67 67 66 65 63 61 61 61 61 60 57 53 51 51 50 49 46 44 42 40 37 34 32 31 31 33 36 38 40 40 38 37 35 33 33 31 31 30 29 28 27 26 23 23 22 22 21 21 21 17 15 17 17 18 19 19 20 20 19 19 19 19
99 80 76 82 80 78 83 84 81 77 71 69 71 70 72 78 79 77 75 74 73 71 72 72 71 70 68 68 68 65 63 61 61 61 60 60 59 56 53 51 51 50 48 45 43 40 36 34 33 33 33 34 35 37 39 40 38 37 36 35 34 33 32 32 30 28 28 27 24 23 23 22 21 21 21 18 17 18 19 20 20 20 21 20 20 20 20 20
103 85 75 77 78 78 79 83 83 79 75 71 69 71 73 76 77 77 75 73 73 72 72 73 72 71 69 69 68 65 63 62 61 61 60 59 59 57 54 52 51 50 49 47 44 41 39 38 37 35 35 33 33 34 37 39 39 39 38 37 36 34 33 32 32 30 30 29 26 24 22 22 20 20 22 21 19 19 19 20 21 22 21 21 21 21 21 21
104 90 76 72 74 77 79 80 83 82 78 74 70 71 73 73 72 72 73 72 71 72 72 73 73 72 71 70 68 64 63 62 60 61 60 59 58 56 54 53 51 51 49 48 46 44 42 41 40 38 36 34 33 33 35 36 37 38 38 37 36 36 34 32 32 31 30 29 26 24 23 21 18 20 25 24 21 21 20 20 21 22 22 21 22 22 23 22
104 96 79 71 72 76 81 79 81 84 81 75 70 71 72 72 72 69 70 71 70 71 72 73 74 73 72 71 68 65 65 63 61 61 60 60 58 56 54 53 52 51 50 49 48 47 46 44 42 41 39 35 34 33 33 33 33 34 36 36 36 36 34 33 32 31 31 29 26 26 23 20 18 23 28 24 22 22 20 21 22 22 22 22 23 23 23 23
105 102 84 72 71 72 78 79 77 82 83 77 71 73 72 70 73 71 68 69 69 70 71 73 74 73 73 71 68 66 66 64 62 62 61 61 60 57 55 53 52 51 50 50 49 49 48 46 45 43 41 38 35 33 31 31 30 29 31 34 35 36 35 33 33 32 31 30 28 28 25 20 21 26 28 23 22 23 22 22 22 22 23 23 24 24 24 24
105 106 92 77 71 68 75 79 76 77 81 78 72 74 75 69 71 72 68 67 69 69 68 70 74 75 74 73 70 67 67 65 64 63 61 61 60 58 56 53 52 51 50 50 50 50 49 47 46 45 43 40 37 34 31 29 28 27 28 31 33 35 36 35 35 34 33 31 29 29 25 22 24 28 27 24 24 25 24 24 23 23 23 24 25 25 25 24
102 106 99 83 73 67 73 79 77 76 77 76 70 71 76 70 68 71 69 68 70 69 68 68 73 76 76 74 72 70 69 67 65 64 62 61 60 59 57 54 52 51 51 50 50 50 50 49 48 48 46 43 39 35 32 30 28 27 27 27 27 31 33 34 35 35 34 34 33 32 27 24 26 29 28 26 26 27 27 26 26 25 24 24 25 25 25 25
98 105 102 89 79 70 72 79 79 77 77 76 72 70 73 70 68 72 70 69 71 70 70 71 71 73 77 77 74 71 69 68 66 65 63 61 60 60 59 56 54 53 52 51 51 51 51 51 50 50 48 46 41 36 35 32 27 23 24 24 25 27 29 30 32 33 33 33 33 35 32 27 28 31 30 29 29 29 29 30 29 27 25 24 25 26 26 26
95 104 103 94 86 75 71 77 79 78 77 77 77 74 71 68 69 74 72 69 71 73 75 75 74 75 79 79 75 71 68 67 67 65 64 62 60 60 59 57 56 54 53 53 53 53 53 52 51 51 50 47 43 40 36 28 21 22 24 25 25 25 25 27 30 31 33 32 31 33 33 29 29 32 31 31 31 30 31 31 30 29 26 25 25 26 27 27
90 101 104 98 91 79 71 75 78 78 77 77 79 80 75 68 66 70 72 70 73 78 80 81 81 79 78 77 73 70 67 66 66 65 64 62 60 60 59 58 57 56 55 55 55 55 54 53 53 53 52 49 44 40 35 26 24 28 28 26 24 23 23 25 27 28 30 32 31 31 30 28 29 32 32 31 32 32 32 32 31 30 29 27 26 26 27 27
87 96 103 102 95 83 71 74 78 77 77 78 79 82 80 72 66 66 69 74 75 74 72 76 79 77 76 74 71 69 68 68 67 67 65 64 62 60 59 59 59 59 58 56 55 55 54 54 54 53 51 47 41 38 35 31 30 31 29 27 25 24 24 24 26 26 26 29 30 32 32 30 30 32 33 32 32 32 33 33 32 32 31 29 28 27 27 27
83 92 100 104 100 87 74 74 78 80 79 78 79 82 81 74 70 69 68 72 74 70 68 69 73 75 76 74 70 69 70 71 71 70 68 66 65 63 61 60 60 60 60 58 56 55 55 55 55 53 49 44 40 39 39 36 34 33 32 30 28 26 25 25 26 25 25 26 27 29 32 32 32 33 34 35 34 32 33 34 34 33 33 32 30 28 27 28
80 87 94 101 102 92 78 72 76 83 83 79 80 83 79 73 75 74 68 70 73 72 69 66 67 71 75 75 72 70 71 73 74 73 71 69 68 67 65 63 61 61 60 60 59 58 57 58 56 52 48 45 42 42 42 39 37 36 35 34 31 27 26 26 26 25 25 25 25 26 28 28 30 34 37 38 35 32 33 34 35 35 35 33 31 30 30 29
75 83 88 95 102 96 83 74 74 82 84 79 79 82 78 73 76 75 68 69 70 69 67 66 66 67 72 75 74 72 73 74 73 73 73 71 69 68 67 65 63 62 61 60 60 59 59 58 55 49 47 45 44 44 44 41 39 38 36 35 32 29 28 28 27 27 26 25 24 25 28 26 25 29 35 39 37 33 33 34 35 36 36 34 33 32 32 31
69 78 84 91 100 100 91 78 75 81 84 80 78 84 82 72 69 71 68 66 68 68 64 63 65 65 67 71 72 73 75 74 72 71 70 70 69 67 66 64 63 62 61 60 59 58 57 55 49 46 45 45 44 43 43 41 40 37 36 35 32 31 32 31 30 30 28 27 24 25 28 27 25 25 28 34 37 35 35 36 35 35 36 36 35 34 34 33
62 72 80 87 97 101 97 84 76 80 84 81 79 83 84 75 68 71 73 69 70 72 65 61 65 66 65 67 70 73 74 74 73 70 67 66 65 65 64 63 62 62 60 58 57 57 56 52 47 45 46 45 44 41 39 39 39 37 36 35 33 33 34 34 33 32 31 30 27 26 27 25 25 26 26 28 33 34 36 38 38 36 36 36 37 36 35 34
58 65 74 84 94 100 101 91 79 80 83 81 81 80 81 79 73 73 76 75 73 75 72 66 66 67 67 68 71 72 72 74 74 72 70 66 64 62 62 62 61 60 58 56 56 56 55 51 47 46 45 44 43 41 38 37 38 37 35 34 34 36 37 36 35 35 35 34 30 30 30 24 22 26 27 27 30 32 33 37 39 39 38 36 36 37 38 37
55 60 68 80 91 97 100 94 83 80 78 76 80 80 78 80 77 74 76 77 75 75 76 73 69 68 69 69 70 73 74 75 74 73 73 70 67 64 62 62 61 60 59 56 56 56 54 52 50 48 46 45 45 41 37 34 35 35 33 33 37 39 38 37 37 38 38 36 34 33 33 29 22 22 24 26 29 32 32 34 37 39 40 39 37 37 39 39
54 57 63 74 86 93 98 98 90 83 76 72 77 80 77 78 77 72 73 78 77 75 77 77 72 68 68 67 69 73 73 72 74 75 74 72 71 68 65 63 61 59 59 58 58 57 55 53 51 47 45 45 44 39 34 33 35 36 34 36 39 40 40 40 39 40 39 39 37 35 35 34 26 20 22 24 26 29 30 31 34 36 38 40 39 38 39 41
54 55 60 69 81 89 95 101 98 90 81 74 77 80 75 74 72 67 69 75 75 76 78 79 76 71 71 71 71 73 71 71 74 73 73 75 74 71 68 66 63 60 58 56 57 57 54 51 48 45 45 44 41 36 34 37 40 40 37 38 41 42 42 42 41 41 42 41 39 36 36 37 31 22 21 23 22 24 27 29 32 34 35 39 41 40 39 41
54 54 56 64 76 86 93 99 101 96 88 78 77 78 72 67 67 64 68 71 69 75 79 78 79 78 75 75 73 72 71 73 73 71 72 74 73 72 70 68 65 62 60 57 57 56 54 51 49 49 48 46 43 40 40 43 46 45 42 42 43 44 44 44 43 43 44 43 40 37 36 37 35 25 20 20 19 21 25 28 31 33 34 36 40 41 41 41
53 52 53 59 72 83 88 94 100 99 93 83 78 76 69 64 64 63 65 67 64 71 79 78 78 78 76 76 75 72 71 72 73 74 75 73 72 73 71 70 68 64 62 61 60 58 55 54 54 53 51 50 48 47 47 49 51 50 46 44 44 45 45 45 45 45 46 44 40 36 34 36 36 27 18 18 20 22 25 27 29 32 34 35 37 40 42 43
51 50 50 55 68 77 80 88 98 99 96 90 83 78 72 68 68 64 62 63 60 64 77 80 77 76 73 71 72 73 72 72 72 73 73 73 74 74 72 72 71 69 68 66 64 62 59 58 57 55 53 51 50 50 51 53 54 53 50 48 48 48 47 46 47 47 46 44 39 34 33 35 37 32 24 22 24 25 24 25 28 30 33 34 35 37 40 43
50 48 48 53 61 66 73 84 94 97 95 93 91 85 79 76 76 67 59 59 57 57 70 79 78 76 73 70 70 72 72 72 72 71 70 71 73 73 72 71 70 70 69 68 67 65 64 63 61 59 57 55 53 53 55 55 55 54 52 49 48 47 46 45 45 45 44 43 38 33 33 36 37 36 32 26 26 27 25 25 27 29 31 33 34 35 36 39
49 47 46 51 54 58 68 79 88 91 89 91 93 89 85 83 78 68 59 56 54 53 61 73 79 77 74 74 73 72 71 71 72 71 71 73 74 73 72 71 68 67 66 66 66 65 64 63 62 61 60 58 56 55 54 53 51 49 47 45 44 44 44 45 44 44 43 42 38 34 36 39 38 36 34 31 28 29 29 27 28 29 30 32 33 34 35 36
48 45 45 48 50 54 64 74 79 82 83 87 88 83 82 85 80 72 64 56 52 51 55 65 76 78 75 76 76 72 71 71 71 71 71 72 73 72 71 69 67 67 67 67 65 63 62 60 59 58 57 56 54 53 52 51 51 50 49 48 47 47 47 46 45 44 43 42 42 41 40 39 37 35 35 35 32 31 31 29 28 29 30 31 33 34 35 36
48 44 43 46 47 51 60 68 70 74 80 82 78 73 75 83 83 77 68 58 50 49 51 58 70 77 76 76 78 76 72 69 70 72 71 69 68 68 67 66 66 67 68 67 66 63 62 61 59 58 57 57 56 55 54 53 53 53 52 51 50 48 47 46 46 45 45 46 47 45 43 40 38 36 36 36 34 31 30 29 29 30 31 31 33 34 35 37
48 45 42 44 46 48 55 61 62 67 76 76 71 68 72 80 84 80 72 63 53 48 48 53 63 73 76 76 78 79 75 71 70 71 72 70 68 67 66 65 65 64 64 64 64 63 63 62 60 59 59 58 58 57 57 57 55 55 54 51 48 47 46 46 46 46 46 48 49 47 44 41 39 38 36 35 35 33 31 32 32 32 32 33 34 35 36 37
48 45 42 43 45 47 51 55 56 61 68 70 68 68 72 78 83 81 75 69 60 51 47 49 54 64 73 75 76 77 76 74 72 71 71 70 70 69 67 66 64 63 62 62 62 62 62 61 60 59 59 58 58 58 58 57 56 55 54 50 48 48 49 48 49 49 49 50 50 48 46 43 40 39 36 35 36 36 34 35 35 35 35 34 35 36 36 37
48 45 43 43 45 45 48 49 50 53 59 65 68 70 73 77 79 78 77 73 67 57 49 46 45 52 64 71 74 74 73 74 73 70 69 68 67 66 64 64 64 63 63 63 63 62 61 62 61 60 59 59 59 59 58 57 55 55 54 53 53 53 52 50 50 50 49 48 48 48 47 45 42 39 37 36 36 36 37 37 37 37 37 37 37 36 36 36
49 46 44 45 45 45 46 46 45 47 51 58 66 70 74 77 76 74 74 73 71 64 53 46 43 44 52 63 70 71 71 73 73 70 67 65 63 62 61 62 62 62 63 64 64 63 61 61 62 61 61 62 62 61 59 57 56 55 54 54 54 53 52 52 50 49 48 48 48 49 49 47 43 40 38 36 34 35 37 38 38 39 39 40 39 37 36 37
51 48 47 47 46 45 45 45 45 46 49 55 63 68 73 77 75 74 73 71 70 68 59 50 45 42 44 52 61 68 71 72 71 70 68 65 62 60 57 57 59 62 64 65 64 64 62 62 62 62 62 62 61 60 58 56 55 53 52 50 48 47 46 46 46 46 47 48 48 49 50 50 46 41 37 34 33 34 37 39 40 41 42 41 40 38 38 38
51 49 49 49 48 46 45 44 43 45 49 55 60 65 71 75 74 74 74 71 68 68 65 57 47 43 43 45 52 62 69 72 70 69 66 62 60 57 53 53 56 59 62 63 63 64 64 64 63 63 62 60 59 57 56 54 53 52 52 49 47 46 45 46 47 47 46 47 48 49 53 53 48 41 37 36 35 35 37 39 41 42 43 42 41 40 39 39
51 50 50 51 50 48 47 45 43 45 48 50 54 59 65 70 71 72 73 73 70 67 66 63 52 45 44 45 48 55 63 68 69 66 62 59 58 57 55 56 56 58 60 61 61 61 62 64 64 63 61 60 58 56 55 54 53 53 52 50 51 52 51 52 51 50 49 50 50 52 54 53 45 38 36 38 38 38 38 39 41 43 44 44 44 43 42 41
52 51 50 51 51 51 49 47 45 44 45 47 51 56 60 62 66 68 69 71 73 69 66 65 57 47 43 45 47 48 53 61 66 65 62 60 59 58 58 58 58 58 58 58 59 58 61 65 65 64 63 63 61 60 59 58 57 57 55 54 55 54 54 53 52 52 53 52 51 51 50 46 40 35 36 39 39 37 38 39 40 42 44 44 45 45 43 42
55 53 52 52 51 51 50 47 45 44 44 45 48 53 57 59 62 65 66 66 70 72 69 65 60 51 43 44 47 45 45 51 59 64 65 62 60 59 58 59 59 57 55 56 58 58 60 63 62 63 65 64 62 61 60 61 62 62 59 57 55 54 53 52 51 51 51 47 44 42 40 38 37 37 39 40 38 36 37 39 41 42 44 44 44 44 43 42
58 56 56 55 52 50 49 48 47 47 46 45 46 48 52 54 56 61 64 65 68 71 71 66 62 56 48 45 48 47 45 47 52 59 64 64 61 59 57 58 59 58 58 58 59 58 59 59 59 59 59 57 56 55 54 55 57 56 54 53 52 52 50 49 49 48 43 40 40 39 37 37 38 39 40 41 38 35 36 40 42 44 44 43 42 42 41 41
61 58 57 56 55 53 51 50 50 50 48 47 47 47 48 50 51 54 59 64 67 70 72 68 63 61 53 46 46 47 45 46 48 52 58 62 61 59 58 59 61 62 61 59 58 58 58 58 56 55 55 54 54 53 51 51 51 49 48 48 48 48 47 48 48 43 38 40 43 40 37 39 41 39 39 39 39 38 39 41 42 43 43 41 40 40 40 41
63 60 57 58 58 56 55 52 50 49 48 48 47 47 48 49 50 52 55 59 65 69 72 70 66 63 56 46 43 44 44 44 45 48 55 60 60 60 61 62 64 65 64 62 60 58 57 56 53 53 54 54 54 53 52 52 51 49 47 46 45 45 45 45 44 40 40 44 43 39 39 42 42 40 39 40 42 42 43 44 42 39 38 38 39 40 41 41
65 63 60 60 60 58 57 53 50 49 48 49 50 50 50 49 49 51 51 54 62 68 72 72 68 63 57 48 44 45 46 46 44 46 53 58 60 61 61 63 65 66 65 64 61 59 58 55 53 53 53 53 53 53 52 52 52 52 50 48 46 44 43 43 41 40 43 45 42 41 43 44 42 40 40 41 41 41 43 43 40 37 37 38 40 40 39 38
66 65 63 62 61 59 58 56 55 53 51 51 52 52 51 50 49 49 49 51 58 64 69 72 69 65 59 50 46 46 46 46 43 43 48 55 59 61 62 60 60 63 65 65 62 60 59 56 54 54 54 54 54 53 52 53 53 53 52 51 49 47 45 45 43 44 48 47 43 41 43 41 39 39 38 37 38 39 40 40 39 40 41 41 39 38 38 38
67 66 65 65 64 62 62 59 58 57 56 55 55 53 52 53 50 49 49 50 53 57 62 68 69 68 62 52 47 47 43 42 41 39 40 46 51 57 60 59 59 61 63 63 62 62 61 59 57 57 57 56 54 53 54 53 53 55 55 52 50 49 48 46 45 47 49 44 40 40 42 40 35 32 32 34 37 38 37 40 43 44 44 43 40 39 39 38
67 67 67 68 67 66 65 62 60 61 59 57 56 55 54 54 51 50 50 50 51 55 58 61 64 70 70 57 45 43 40 39 41 40 39 40 44 50 55 57 58 60 60 61 61 62 62 61 59 59 59 58 57 57 56 56 59 59 53 48 47 48 48 47 47 47 45 41 39 40 39 35 31 30 31 34 37 37 38 42 46 46 46 44 41 39 38 37
Wind_Direction
200 205 207 207 207 208 209 208 209 210 210 212 212 213 212 210 210 209 208 208 209 208 206 206 207 207 206 205 205 203 202 204 205 206 206 205 205 204 208 209 206 206 205 204 204 202 203 203 205 210 212 212 212 214 214 211 205 205 207 208 209 210 209 209 212 210 204 208 212 213 214 212 208 200 193 191 192 197 199 198 191 185 188 193 190 180 172 169
197 202 205 205 206 207 209 208 209 209 209 211 212 213 212 211 210 209 208 208 209 209 207 206 207 207 206 205 205 204 203 205 207 206 204 204 204 203 206 209 207 207 205 204 207 208 209 207 205 207 213 215 213 213 215 214 211 207 207 210 213 212 210 209 212 210 205 207 211 214 216 214 211 206 199 196 196 202 204 204 203 193 187 191 194 187 178 173
193 199 203 203 203 204 207 207 209 209 208 211 212 212 212 212 211 209 209 208 208 210 208 206 207 208 207 205 205 205 205 206 209 208 206 205 206 205 206 208 207 208 204 202 207 210 213 213 207 205 211 215 213 211 214 215 215 210 206 211 216 215 212 209 211 212 207 206 210 214 217 216 213 208 203 200 200 204 207 208 211 204 194 194 196 193 185 179
190 194 200 202 203 202 204 204 207 209 207 209 212 212 212 212 211 209 209 209 208 209 209 207 206 208 208 206 206 205 206 208 209 209 208 208 208 207 207 208 207 207 204 202 209 210 213 218 214 208 210 214 211 209 211 214 216 212 207 212 217 218 215 211 211 215 211 205 209 214 218 218 214 211 207 205 204 204 206 208 211 209 204 200 198 199 195 186
192 190 195 200 204 203 202 201 203 207 206 207 211 212 212 212 211 210 210 209 208 209 210 209 206 207 208 208 207 206 207 209 209 209 209 207 210 209 208 209 208 208 206 203 208 210 212 217 218 214 210 211 210 208 210 213 216 214 210 212 218 221 219 215 212 216 215 207 207 213 218 220 217 214 211 210 208 205 206 206 209 208 207 206 202 202 202 196
195 188 191 195 202 203 201 201 201 203 205 206 210 212 211 211 211 209 210 209 208 209 210 210 208 207 208 208 208 208 208 209 208 210 210 208 210 210 209 211 210 210 208 206 206 208 212 214 216 217 213 209 209 209 211 212 216 217 215 215 220 223 221 217 214 216 219 212 207 211 217 220 222 219 215 217 213 208 208 207 211 210 208 208 207 205 204 201
199 190 190 192 197 202 201 201 200 200 202 203 207 212 211 211 211 210 210 210 209 209 210 211 210 208 208 209 209 209 209 209 209 210 211 211 211 210 210 212 212 212 212 210 209 209 213 214 215 217 216 212 210 210 211 211 214 218 219 218 220 224 223 220 216 216 220 216 208 209 215 219 223 223 220 221 216 212 212 211 214 215 213 213 212 211 209 207
201 191 189 189 191 199 202 202 201 198 199 201 203 208 210 210 211 212 211 210 209 209 210 211 211 210 208 209 210 210 210 209 209 210 211 212 212 212 211 212 213 214 215 214 214 213 213 214 214 216 217 216 213 211 210 211 212 216 219 219 221 224 223 221 219 217 219 219 211 209 213 218 223 224 224 224 219 217 216 215 218 220 221 220 218 217 215 213
203 193 187 187 188 195 200 202 203 200 198 201 202 203 208 209 210 212 211 211 210 209 210 211 212 211 210 209 210 210 211 211 210 211 211 212 212 213 213 214 214 216 217 217 216 216 214 213 215 216 218 218 218 214 212 213 213 214 218 219 220 223 223 221 220 218 219 219 215 212 213 216 222 226 228 227 222 220 219 218 220 222 225 226 224 224 221 217
203 194 186 186 188 191 196 201 203 203 201 202 202 200 206 209 209 211 211 211 211 210 211 212 212 212 211 211 210 210 211 211 211 212 213 213 213 214 215 216 216 216 218 218 218 218 216 216 217 217 218 219 220 217 214 214 213 214 217 218 220 222 223 222 220 217 217 219 217 216 216 216 220 226 231 229 225 222 220 221 221 222 224 227 227 228 228 224
204 196 187 184 188 191 193 198 201 203 203 204 202 199 203 208 209 211 212 212 211 211 211 212 212 213 213 212 211 211 211 211 211 212 213 214 214 215 216 217 218 217 217 218 219 219 217 217 218 219 219 219 221 221 218 215 214 215 218 219 220 222 224 224 223 218 216 217 218 218 219 219 219 226 233 230 226 224 222 223 224 225 224 226 228 229 231 229
205 198 188 184 185 189 192 195 199 202 203 205 204 199 202 206 208 209 211 212 211 211 212 212 212 213 213 213 212 212 212 212 212 212 212 213 214 214 215 217 218 218 218 218 219 219 218 218 218 220 220 218 221 223 222 220 218 216 218 221 221 223 224 225 226 222 217 216 218 222 222 221 218 225 233 230 226 227 226 226 227 228 228 226 228 229 231 231
207 200 191 185 182 184 190 193 196 201 203 204 203 199 201 205 205 206 208 211 211 211 212 212 212 213 213 214 213 212 213 212 212 213 212 213 214 214 214 215 217 218 218 218 219 219 219 218 218 220 220 219 219 222 224 225 224 221 220 222 223 225 225 226 228 225 221 217 219 224 224 220 219 227 233 230 227 229 229 229 229 230 230 229 230 230 231 231
208 203 195 187 182 181 187 190 192 198 203 204 202 198 199 203 204 203 206 209 210 211 212 213 213 213 214 214 213 213 213 213 212 213 213 213 214 213 213 214 216 218 218 218 218 219 219 218 219 220 221 221 220 221 223 225 227 224 222 224 225 227 228 228 230 229 226 223 222 225 223 218 221 230 235 232 229 231 231 232 232 231 231 232 232 231 232 232
210 206 200 191 184 182 186 189 189 194 200 202 200 198 199 203 204 204 205 207 208 209 211 214 214 213 214 213 213 213 213 213 213 213 213 213 214 214 213 213 215 217 218 218 218 220 220 219 220 222 223 222 220 220 221 224 225 222 220 223 226 229 229 229 230 232 232 230 226 226 223 216 223 232 234 232 230 231 231 233 234 232 232 233 234 234 233 233
211 208 204 196 188 185 185 187 188 191 197 199 196 196 199 202 204 204 205 207 207 207 207 211 215 214 213 213 212 212 213 213 213 214 215 214 214 214 214 214 215 216 217 218 219 220 221 220 221 223 224 222 220 219 219 221 222 219 217 219 224 229 231 231 232 233 235 236 232 231 227 221 228 234 232 230 229 229 231 232 233 234 233 234 236 237 236 235
212 209 206 199 193 189 183 184 188 190 194 196 193 193 195 197 201 203 205 208 208 205 205 210 213 213 213 212 212 212 213 214 214 215 215 215 215 215 215 214 215 216 217 217 218 219 221 221 222 223 224 223 221 219 219 218 219 220 219 219 222 228 232 234 236 236 236 237 237 237 235 228 232 236 232 230 229 228 230 232 233 233 233 235 237 239 239 238
212 210 207 203 198 190 182 182 187 189 191 191 191 192 191 192 198 202 204 207 208 205 203 207 211 211 212 211 210 212 213 215 215 215 216 216 216 216 216 216 216 217 218 218 218 219 221 221 223 224 225 224 222 220 220 218 218 222 222 221 222 226 230 234 238 238 237 237 238 238 235 226 229 236 235 232 231 230 230 232 234 234 234 234 237 239 241 240
213 211 208 205 200 192 182 180 185 190 188 186 188 190 190 190 193 199 204 206 208 208 205 206 210 211 212 211 210 211 212 214 216 216 216 217 217 217 217 217 217 217 218 219 219 219 221 222 223 224 225 224 222 224 224 220 220 223 223 223 224 226 229 233 238 238 236 236 235 236 233 223 226 236 237 235 234 233 232 233 234 235 236 236 236 238 241 242
215 213 209 207 202 195 185 179 182 188 186 184 186 189 191 192 190 194 205 208 208 213 215 213 214 213 212 211 210 211 212 213 215 217 217 217 217 218 218 218 218 218 219 220 220 221 222 223 224 225 227 228 228 229 228 223 222 225 226 226 226 227 229 233 237 237 235 235 233 233 231 223 225 236 241 239 238 237 236 235 234 235 236 236 237 238 241 242
217 215 212 210 206 198 188 179 181 185 185 185 187 188 190 191 190 189 199 208 209 211 214 215 216 216 215 213 210 211 213 214 214 215 216 216 217 217 217 218 218 219 220 220 221 221 223 224 225 226 229 231 231 229 227 223 222 225 226 227 227 226 228 233 238 240 239 238 235 234 233 227 226 234 241 243 241 239 239 239 237 235 235 236 236 238 240 242
219 217 216 213 208 200 190 181 180 184 185 186 187 188 187 189 193 193 195 203 208 210 212 212 213 215 216 215 212 210 213 215 215 215 214 214 216 217 217 217 218 219 220 221 221 221 222 222 224 226 229 230 229 227 226 222 220 223 225 226 227 226 229 235 240 244 243 242 239 238 238 233 228 231 237 242 242 240 240 241 241 239 238 237 236 238 239 242
219 219 218 215 209 202 193 185 182 184 186 187 187 185 184 188 193 195 196 198 202 208 212 213 212 212 213 214 213 211 213 215 216 217 216 215 214 216 217 217 217 218 219 221 222 223 223 223 225 227 229 230 230 229 227 223 221 223 226 228 228 228 231 235 239 244 246 246 243 239 239 235 231 231 236 241 242 239 239 240 242 243 242 239 237 238 239 241
220 220 220 216 211 205 199 191 183 183 186 188 187 182 183 189 193 195 198 199 200 204 208 212 213 211 210 211 213 214 215 215 215 218 219 218 216 215 216 217 218 218 219 220 222 225 225 227 229 231 232 232 232 232 231 228 224 224 227 229 228 229 233 235 238 242 245 248 247 245 242 235 232 233 234 240 242 240 239 239 240 242 244 243 240 238 239 241
219 220 220 217 213 209 203 196 187 182 184 186 186 184 186 194 197 199 202 203 203 203 204 208 211 211 209 208 211 213 214 215 215 216 218 220 219 218 218 218 219 219 220 220 222 224 226 227 229 232 234 236 236 236 235 231 226 226 229 230 229 229 232 235 237 240 243 247 248 250 250 240 233 235 233 237 243 241 239 240 241 240 242 244 244 241 239 241
219 220 220 217 215 211 206 200 191 183 182 183 184 187 191 195 198 199 202 203 203 203 205 207 210 210 208 207 209 210 211 213 213 214 215 217 218 219 220 220 221 221 221 221 223 225 226 227 229 231 233 235 237 236 234 231 228 228 230 231 231 231 233 235 237 241 243 245 247 249 254 248 235 236 235 235 242 243 241 242 243 242 242 243 244 243 240 240
219 220 220 218 216 214 210 204 194 186 184 183 183 186 190 194 197 197 200 203 202 202 205 207 209 209 209 208 209 209 210 211 212 213 214 214 215 215 218 220 221 222 222 222 223 225 226 227 228 230 232 234 235 235 234 233 234 233 231 232 233 233 234 235 236 240 243 245 246 247 253 254 243 237 240 238 241 245 245 246 246 245 245 243 243 243 241 239
220 220 220 218 217 216 212 205 198 193 190 186 182 184 187 191 193 194 197 200 201 201 203 206 208 209 209 208 210 211 211 212 212 212 213 214 215 214 215 216 219 222 223 224 225 225 226 228 229 231 233 235 237 238 236 237 239 236 233 232 233 234 234 235 237 240 243 245 246 247 252 258 252 241 245 247 246 249 251 253 252 249 247 246 243 241 241 239
221 221 221 219 217 217 213 208 203 200 196 190 184 184 185 187 189 191 194 196 197 199 201 204 206 208 208 207 208 209 209 210 212 212 213 213 214 214 215 215 216 218 220 223 225 226 227 228 230 230 232 234 236 237 236 236 238 237 234 233 234 235 235 236 237 239 242 245 247 248 251 259 259 248 248 256 257 258 258 258 258 256 252 249 246 242 240 239
220 220 221 220 217 217 215 211 208 205 201 194 186 184 185 185 187 191 194 192 192 197 199 201 204 207 208 207 207 208 207 208 210 211 213 213 213 213 214 214 214 215 217 218 221 223 225 226 228 229 231 232 232 232 232 234 236 235 234 232 233 235 235 236 237 238 241 244 246 247 250 259 262 252 247 259 264 261 259 257 258 259 258 254 250 246 241 239
220 219 221 220 217 217 216 213 211 209 206 198 189 187 186 186 189 192 193 190 189 194 197 199 202 205 207 207 208 208 207 208 208 209 211 213 214 213 213 213 212 212 214 216 217 219 221 223 226 228 229 230 231 232 233 235 237 237 236 235 235 236 236 237 238 239 242 245 247 247 249 257 262 260 253 257 258 253 253 257 258 260 261 259 256 252 248 244
220 220 220 219 218 218 217 215 212 211 210 204 196 193 190 192 198 196 191 189 189 193 196 197 199 203 206 206 209 211 210 209 208 210 211 212 214 215 215 215 215 215 215 216 218 219 221 223 225 226 227 229 230 232 235 236 237 238 238 237 236 237 238 238 239 241 244 248 250 249 250 256 263 267 262 253 251 251 252 256 258 259 261 262 261 258 255 252
220 220 220 219 220 219 217 215 213 213 213 210 205 202 199 202 205 197 189 189 191 192 195 197 198 202 205 205 207 210 212 211 210 210 210 213 214 214 215 216 217 219 221 220 220 220 221 222 223 225 227 228 230 232 234 236 238 239 241 241 241 242 244 245 246 248 250 252 254 253 253 255 257 263 264 258 256 258 257 255 256 257 259 261 263 263 261 257
220 221 219 219 221 219 216 215 214 214 215 213 212 211 210 210 206 196 191 193 193 191 194 197 198 201 205 207 208 209 210 211 211 210 209 210 212 212 213 214 215 218 221 223 224 224 225 226 227 228 229 230 231 232 234 236 238 240 242 244 245 246 248 249 250 252 253 255 255 252 250 251 253 259 265 265 261 261 260 256 255 256 258 261 263 264 265 262
219 221 219 219 221 219 216 216 216 215 215 214 215 216 217 214 207 199 197 196 193 192 192 195 199 201 204 208 210 211 210 210 209 209 210 211 211 212 213 213 215 217 219 221 223 226 228 230 231 233 234 234 234 234 235 236 237 238 238 238 239 240 242 244 246 247 250 252 251 249 250 254 257 260 263 264 262 261 261 260 258 257 258 259 261 263 264 264
218 220 219 219 221 219 217 217 217 215 214 214 216 217 218 216 209 203 200 196 194 194 192 193 197 201 203 206 209 211 211 210 209 208 210 211 213 214 214 214 214 217 220 222 223 224 226 228 229 231 233 234 234 234 235 237 238 240 241 241 242 242 243 245 247 248 250 251 252 252 253 256 258 258 260 263 265 264 264 264 261 260 258 257 258 260 262 264
218 219 219 220 221 220 218 218 217 214 214 215 216 216 217 216 212 207 202 197 196 196 194 193 196 200 203 204 207 210 210 210 212 214 213 212 213 214 215 214 215 217 220 223 224 224 225 227 227 228 230 231 232 233 233 233 235 238 240 242 244 245 245 246 248 249 251 252 252 252 254 256 257 259 260 263 266 265 266 266 264 262 260 259 258 259 261 264
217 218 217 219 221 220 219 219 218 215 215 217 217 215 216 216 214 210 206 201 198 197 196 194 195 200 205 206 207 209 210 211 213 216 217 216 215 215 216 216 216 217 219 221 223 224 225 226 227 228 230 230 231 232 233 233 235 237 239 240 240 242 244 245 247 248 250 252 253 253 255 255 257 260 262 263 265 266 266 267 266 265 263 262 261 260 260 263
215 216 216 218 220 219 218 219 218 216 216 217 217 216 216 216 216 213 209 205 201 199 197 194 195 200 205 208 209 209 210 212 214 215 216 217 217 218 219 219 219 218 217 218 220 222 223 225 225 226 228 230 231 232 234 236 236 238 239 239 239 241 243 243 245 247 249 252 254 255 255 256 257 260 262 263 265 265 265 264 264 264 264 263 263 263 262 263
214 214 214 217 219 218 217 216 214 213 215 217 217 217 217 217 217 216 212 208 204 201 199 195 195 201 206 208 210 211 211 213 215 216 216 216 216 217 218 220 221 220 219 218 218 219 221 223 225 225 225 227 230 233 235 237 237 238 240 241 243 244 245 246 247 248 251 253 254 256 256 257 259 260 261 261 262 263 264 265 265 265 265 266 266 266 265 265
215 214 214 216 218 218 217 215 213 213 215 217 217 217 217 217 217 217 215 211 207 204 202 199 196 199 206 208 210 212 213 214 215 216 217 216 216 217 218 219 220 220 220 219 219 219 220 221 224 226 227 228 230 232 233 234 235 236 237 239 243 246 247 249 250 249 251 253 254 256 255 254 256 259 259 259 259 262 264 266 267 267 268 268 269 268 267 267
216 215 216 216 217 217 217 217 216 216 217 219 218 218 219 218 217 217 216 214 211 207 204 203 199 198 204 208 210 212 215 216 216 217 218 219 219 219 219 220 220 220 220 220 220 220 220 220 222 225 227 228 229 229 230 231 232 233 233 234 235 238 239 241 243 244 245 248 250 252 252 251 253 257 259 260 261 262 263 264 265 267 268 268 269 269 269 269
215 216 217 218 217 217 216 216 215 216 217 217 218 218 219 219 217 217 217 215 213 211 207 204 203 201 203 206 209 214 216 217 218 218 218 219 219 219 218 219 219 219 219 219 219 220 221 221 220 222 224 226 226 226 226 227 228 229 232 233 235 237 239 240 241 242 242 244 246 247 249 252 255 259 263 265 265 262 260 259 261 264 266 267 268 268 268 267
213 213 217 219 220 219 217 216 216 216 216 216 217 217 217 217 216 215 216 216 215 214 210 205 204 202 203 205 207 212 216 216 217 218 218 218 217 217 218 219 219 220 222 223 222 221 222 222 222 221 221 222 222 222 223 224 227 229 229 231 233 235 236 237 239 239 239 241 242 244 250 256 260 263 265 265 265 261 259 259 259 261 264 266 267 267 267 267
213 212 214 217 220 220 219 219 218 217 217 217 218 218 219 219 217 216 215 215 215 216 213 208 205 203 203 205 205 208 212 214 215 216 216 217 217 218 219 220 221 223 225 226 225 222 222 224 225 225 225 226 227 229 230 232 232 231 229 229 230 232 233 235 236 236 238 241 244 250 258 263 263 263 262 261 261 259 258 260 261 262 264 264 265 265 266 267
214 213 214 215 218 220 219 219 219 216 215 215 215 216 218 218 218 217 216 215 214 215 214 211 208 207 206 204 204 205 207 209 212 214 215 215 215 216 219 221 222 223 223 223 223 222 223 225 227 230 232 236 238 239 240 240 238 236 234 233 232 233 233 233 234 238 244 247 250 257 261 260 258 258 257 257 259 257 256 257 260 263 263 262 262 263 265 267
216 215 216 217 218 219 219 219 221 219 218 217 215 215 216 216 215 215 215 214 214 214 214 212 209 208 206 204 203 204 205 207 207 209 212 214 214 214 217 220 222 222 221 221 221 222 224 226 228 231 232 234 237 237 237 238 239 239 238 237 236 236 235 235 237 242 247 247 248 252 253 252 253 254 254 256 257 256 255 256 257 259 260 261 262 263 264 266
218 217 217 219 220 220 220 220 223 224 223 222 220 219 219 217 215 215 214 213 213 214 213 211 210 208 205 204 204 202 204 208 206 204 207 211 212 213 215 218 220 221 221 222 223 224 226 228 230 232 233 234 234 234 233 232 232 232 232 233 234 234 235 237 238 239 241 242 242 242 244 247 249 249 250 253 253 254 258 260 260 260 261 262 262 262 263 265
220 219 219 220 222 223 222 222 223 225 226 225 224 223 221 218 216 216 215 213 213 214 213 210 210 208 205 205 205 203 204 206 204 202 204 207 209 212 215 218 219 220 222 224 226 227 227 227 228 231 233 235 236 235 232 230 229 228 228 228 229 230 232 233 232 232 234 236 237 238 241 246 249 249 250 253 255 257 261 264 266 266 262 259 259 260 264 267
223 222 222 223 223 225 225 223 222 224 225 225 226 225 224 222 219 217 216 214 213 215 215 213 210 209 208 207 206 204 203 203 203 202 205 207 209 212 214 217 219 220 222 223 225 227 227 225 226 229 231 232 233 233 231 230 230 230 229 228 228 229 230 230 230 229 231 235 239 241 243 248 252 252 251 253 255 257 260 263 265 264 262 260 261 264 267 271
224 224 225 225 224 224 226 225 224 225 226 226 227 227 227 226 222 219 220 218 215 215 217 217 214 210 209 210 209 205 201 202 204 205 208 211 213 215 216 217 218 220 221 222 222 223 223 223 223 225 228 229 230 230 229 228 230 230 229 229 230 232 234 234 232 231 234 241 244 241 246 254 254 249 249 251 253 255 259 262 263 263 264 266 268 269 271 273
225 225 226 227 225 225 226 225 225 225 226 227 228 229 231 230 227 224 223 220 216 213 215 218 216 212 210 210 207 202 201 204 206 206 209 211 213 217 219 220 220 220 219 220 222 221 221 222 222 223 227 227 227 228 229 229 231 230 228 228 232 236 238 237 236 236 240 246 245 245 252 256 248 238 240 246 250 254 258 259 261 264 267 269 270 272 273 274
Height
5633 5640 5648 5656 5664 5670 5675 5682 5688 5694 5702 5708 5714 5720 5728 5735 5741 5748 5754 5758 5762 5767 5772 5777 5781 5786 5791 5796 5800 5804 5808 5811 5814 5817 5821 5825 5828 5831 5834 5836 5838 5840 5842 5843 5845 5847 5849 5851 5853 5854 5856 5857 5859 5861 5862 5864 5866 5869 5872 5874 5875 5876 5878 5879 5879 5881 5883 5883 5885 5886 5887 5888 5889 5889 5890 5891 5892 5892 5893 5894 5895 5895 5897 5898 5898 5898 5898 5898
5626 5634 5641 5650 5657 5664 5671 5678 5683 5690 5697 5703 5709 5716 5723 5730 5737 5744 5749 5753 5758 5763 5768 5773 5777 5782 5787 5792 5797 5801 5805 5808 5811 5814 5817 5821 5824 5828 5830 5833 5836 5838 5840 5843 5845 5846 5847 5849 5850 5852 5853 5855 5857 5860 5861 5863 5865 5867 5870 5872 5873 5875 5877 5879 5879 5880 5881 5883 5884 5885 5886 5887 5888 5889 5889 5890 5892 5892 5893 5894 5895 5895 5896 5898 5898 5898 5898 5898
5620 5628 5636 5644 5652 5660 5667 5673 5679 5686 5693 5698 5704 5711 5718 5725 5732 5739 5744 5749 5755 5759 5764 5769 5774 5778 5783 5788 5793 5797 5801 5804 5807 5811 5814 5817 5821 5825 5828 5830 5833 5836 5839 5842 5844 5845 5846 5847 5848 5849 5850 5852 5856 5858 5859 5861 5863 5866 5868 5870 5872 5874 5876 5878 5878 5879 5880 5881 5883 5884 5885 5886 5887 5888 5889 5890 5891 5892 5893 5894 5895 5896 5897 5897 5898 5898 5898 5898
5614 5623 5632 5640 5647 5654 5661 5670 5677 5683 5689 5694 5700 5706 5713 5720 5727 5734 5739 5745 5751 5755 5760 5765 5770 5775 5779 5784 5789 5794 5798 5800 5805 5809 5812 5815 5818 5822 5826 5828 5831 5834 5836 5839 5841 5844 5845 5846 5847 5848 5849 5851 5854 5856 5857 5860 5862 5864 5867 5869 5871 5873 5875 5877 5878 5878 5879 5880 5882 5883 5884 5885 5886 5887 5888 5888 5889 5891 5892 5894 5895 5896 5897 5897 5898 5899 5899 5898
5608 5617 5627 5635 5642 5650 5658 5665 5671 5677 5683 5689 5694 5701 5708 5715 5722 5729 5735 5741 5747 5752 5756 5761 5766 5771 5775 5780 5785 5790 5793 5797 5803 5806 5808 5812 5815 5820 5824 5827 5830 5832 5834 5836 5839 5842 5843 5844 5845 5847 5848 5849 5852 5854 5856 5859 5860 5863 5865 5867 5869 5871 5874 5876 5878 5878 5878 5879 5880 5882 5883 5884 5885 5886 5886 5887 5888 5890 5892 5894 5895 5895 5896 5897 5898 5898 5899 5899
5602 5612 5621 5630 5636 5645 5654 5660 5666 5672 5678 5685 5690 5696 5703 5710 5717 5724 5730 5737 5742 5747 5752 5756 5762 5767 5771 5776 5781 5786 5790 5796 5801 5804 5806 5810 5813 5817 5821 5824 5827 5830 5832 5834 5837 5839 5841 5842 5844 5846 5847 5848 5850 5852 5855 5857 5859 5861 5863 5865 5867 5869 5872 5875 5876 5877 5877 5878 5879 5881 5882 5883 5884 5885 5886 5886 5888 5890 5891 5893 5894 5895 5895 5896 5897 5897 5898 5898
5595 5606 5616 5624 5632 5640 5649 5655 5661 5668 5673 5679 5686 5692 5699 5706 5713 5720 5726 5732 5738 5743 5748 5752 5757 5762 5767 5772 5776 5781 5787 5793 5798 5800 5804 5807 5810 5814 5818 5821 5825 5828 5830 5833 5835 5837 5839 5841 5842 5844 5845 5846 5848 5850 5852 5855 5857 5859 5861 5864 5866 5868 5870 5873 5875 5876 5876 5877 5878 5879 5880 5882 5883 5884 5885 5886 5888 5889 5890 5892 5893 5894 5894 5895 5896 5897 5898 5898
5590 5601 5612 5619 5628 5635 5643 5650 5656 5661 5666 5673 5681 5688 5695 5702 5708 5715 5722 5728 5734 5739 5744 5748 5753 5758 5764 5769 5773 5778 5783 5789 5794 5797 5800 5804 5807 5811 5815 5819 5822 5825 5829 5831 5834 5836 5837 5839 5841 5843 5844 5845 5846 5848 5850 5852 5855 5857 5859 5862 5864 5866 5868 5871 5873 5874 5875 5876 5876 5877 5878 5880 5882 5883 5884 5885 5887 5889 5890 5891 5893 5894 5894 5894 5895 5896 5897 5898
5585 5597 5607 5614 5623 5631 5638 5645 5650 5656 5662 5668 5677 5685 5690 5696 5703 5710 5717 5724 5730 5736 5741 5745 5750 5755 5760 5765 5770 5776 5781 5787 5791 5794 5797 5801 5805 5808 5812 5816 5819 5823 5827 5829 5831 5833 5835 5837 5839 5841 5842 5842 5843 5845 5847 5850 5853 5855 5857 5860 5862 5864 5865 5868 5870 5873 5874 5874 5875 5875 5876 5878 5881 5882 5883 5885 5887 5887 5889 5890 5891 5893 5894 5894 5895 5895 5896 5897
5581 5592 5600 5608 5618 5626 5633 5639 5645 5652 5658 5664 5674 5682 5685 5691 5698 5705 5712 5719 5725 5732 5736 5741 5746 5750 5755 5761 5766 5772 5778 5783 5787 5791 5795 5799 5802 5806 5809 5813 5816 5820 5824 5826 5829 5831 5834 5836 5837 5838 5838 5839 5840 5843 5845 5848 5851 5853 5855 5857 5859 5861 5863 5865 5868 5870 5872 5873 5873 5874 5875 5877 5879 5881 5882 5884 5885 5886 5887 5888 5890 5891 5892 5894 5894 5894 5895 5896
5576 5587 5595 5603 5612 5621 5629 5634 5640 5647 5654 5661 5669 5678 5682 5687 5696 5702 5708 5714 5721 5727 5732 5737 5742 5747 5752 5758 5764 5770 5774 5778 5783 5787 5792 5796 5800 5803 5807 5810 5813 5817 5820 5823 5826 5828 5831 5832 5834 5835 5836 5837 5839 5841 5843 5845 5848 5850 5852 5855 5857 5859 5861 5863 5865 5868 5870 5871 5872 5872 5874 5876 5878 5881 5881 5882 5884 5884 5886 5887 5888 5889 5891 5893 5893 5894 5894 5895
5572 5582 5590 5598 5607 5617 5625 5629 5635 5643 5650 5657 5666 5675 5680 5685 5693 5700 5705 5710 5716 5722 5727 5732 5738 5743 5748 5753 5759 5765 5769 5774 5779 5783 5787 5792 5796 5800 5803 5806 5809 5813 5817 5820 5822 5825 5827 5829 5831 5832 5833 5835 5837 5838 5840 5843 5845 5848 5850 5852 5855 5857 5859 5861 5863 5865 5867 5869 5871 5871 5873 5875 5878 5879 5878 5880 5882 5883 5884 5885 5886 5888 5889 5891 5892 5893 5893 5894
5568 5578 5586 5594 5602 5611 5620 5626 5632 5638 5646 5654 5662 5672 5677 5682 5690 5696 5700 5704 5711 5717 5723 5728 5734 5739 5743 5748 5755 5760 5764 5770 5775 5779 5784 5788 5792 5796 5799 5803 5806 5809 5812 5816 5819 5821 5823 5826 5828 5829 5831 5833 5834 5835 5838 5841 5843 5846 5849 5851 5853 5854 5857 5859 5861 5863 5865 5867 5869 5869 5871 5875 5877 5876 5874 5878 5881 5882 5883 5884 5885 5886 5888 5889 5890 5891 5892 5893
5562 5572 5581 5590 5598 5606 5615 5623 5628 5634 5642 5650 5658 5667 5673 5678 5683 5690 5694 5699 5706 5712 5717 5722 5728 5734 5738 5744 5751 5755 5759 5764 5770 5774 5780 5784 5788 5792 5796 5800 5803 5806 5809 5812 5815 5817 5820 5823 5825 5826 5828 5830 5832 5834 5837 5839 5841 5845 5847 5849 5851 5852 5855 5857 5859 5860 5862 5864 5867 5867 5870 5874 5874 5872 5873 5878 5880 5881 5882 5882 5883 5884 5885 5887 5888 5889 5890 5891
5558 5567 5576 5585 5593 5602 5611 5618 5624 5630 5637 5645 5654 5662 5669 5674 5680 5686 5690 5693 5700 5706 5712 5718 5723 5728 5733 5739 5745 5749 5754 5760 5766 5770 5775 5780 5785 5789 5793 5796 5800 5803 5806 5809 5812 5814 5817 5820 5822 5823 5826 5829 5831 5832 5835 5837 5840 5843 5845 5847 5849 5850 5852 5855 5856 5858 5859 5862 5864 5865 5868 5872 5872 5870 5872 5876 5878 5879 5880 5880 5881 5882 5883 5885 5886 5887 5889 5890
5554 5561 5571 5580 5588 5598 5607 5613 5619 5625 5633 5642 5650 5658 5665 5671 5677 5682 5686 5690 5694 5699 5707 5711 5715 5722 5728 5733 5739 5743 5749 5755 5762 5767 5771 5776 5781 5785 5789 5793 5796 5799 5802 5805 5809 5811 5814 5817 5819 5820 5823 5826 5828 5831 5833 5835 5837 5840 5843 5845 5848 5849 5850 5853 5854 5855 5857 5859 5861 5863 5867 5870 5869 5868 5870 5873 5875 5877 5877 5878 5879 5880 5881 5883 5884 5885 5886 5888
5550 5557 5566 5575 5583 5594 5603 5608 5613 5620 5629 5637 5646 5656 5662 5667 5673 5679 5684 5686 5686 5692 5701 5706 5712 5718 5720 5725 5733 5740 5746 5753 5758 5763 5768 5773 5777 5781 5785 5788 5792 5795 5798 5802 5805 5808 5810 5813 5815 5817 5820 5823 5826 5829 5830 5832 5837 5841 5843 5845 5846 5847 5849 5851 5852 5853 5855 5856 5858 5860 5864 5868 5867 5866 5868 5870 5872 5874 5875 5876 5876 5878 5879 5881 5882 5883 5884 5885
5546 5553 5561 5569 5578 5589 5597 5603 5610 5617 5625 5632 5642 5651 5656 5661 5668 5673 5677 5679 5679 5684 5690 5696 5700 5702 5706 5718 5731 5739 5746 5751 5755 5760 5764 5769 5773 5777 5782 5785 5788 5791 5794 5797 5801 5803 5806 5809 5812 5814 5817 5820 5823 5826 5828 5834 5839 5841 5841 5842 5844 5845 5847 5848 5849 5850 5852 5853 5855 5856 5860 5865 5865 5864 5866 5868 5869 5871 5872 5873 5875 5876 5877 5879 5880 5881 5882 5883
5542 5548 5556 5564 5572 5583 5592 5599 5606 5613 5621 5629 5637 5644 5650 5656 5663 5669 5671 5670 5667 5667 5673 5681 5686 5694 5709 5725 5733 5738 5744 5747 5751 5756 5761 5765 5769 5773 5777 5780 5784 5787 5790 5793 5797 5800 5803 5806 5808 5810 5813 5816 5821 5825 5830 5835 5837 5836 5837 5840 5841 5843 5845 5846 5847 5848 5849 5850 5852 5854 5857 5862 5863 5862 5863 5865 5867 5868 5870 5871 5873 5874 5876 5877 5878 5879 5880 5882
5536 5543 5551 5558 5566 5578 5588 5595 5602 5610 5618 5626 5633 5639 5643 5649 5656 5662 5663 5661 5663 5669 5680 5687 5694 5705 5716 5723 5729 5735 5738 5741 5746 5751 5757 5761 5765 5769 5773 5776 5779 5783 5786 5790 5794 5797 5800 5802 5805 5808 5811 5816 5822 5826 5830 5832 5833 5833 5836 5838 5839 5841 5842 5843 5844 5845 5847 5848 5849 5851 5853 5858 5861 5860 5861 5863 5865 5866 5868 5869 5871 5872 5873 5874 5876 5877 5879 5880
5531 5538 5545 5552 5563 5574 5583 5591 5598 5606 5614 5621 5627 5632 5638 5644 5650 5652 5653 5659 5668 5674 5680 5687 5696 5705 5711 5717 5726 5731 5732 5735 5739 5743 5749 5755 5759 5763 5767 5771 5775 5779 5783 5786 5790 5793 5796 5799 5802 5806 5810 5815 5820 5823 5825 5828 5829 5831 5833 5835 5836 5838 5839 5841 5842 5843 5845 5846 5847 5849 5850 5854 5858 5858 5858 5859 5862 5865 5866 5867 5868 5869 5870 5872 5874 5875 5877 5877
5526 5533 5540 5548 5559 5569 5578 5587 5593 5601 5609 5615 5621 5628 5636 5643 5647 5647 5647 5654 5663 5667 5672 5681 5690 5697 5705 5713 5719 5722 5725 5729 5732 5735 5741 5748 5753 5757 5762 5766 5771 5775 5779 5782 5784 5788 5791 5794 5798 5803 5807 5811 5815 5817 5820 5823 5826 5827 5829 5831 5834 5837 5838 5839 5840 5841 5843 5844 5846 5847 5848 5851 5854 5855 5855 5855 5858 5863 5864 5865 5866 5866 5867 5869 5872 5873 5873 5874
5522 5528 5535 5543 5554 5564 5573 5580 5588 5597 5606 5612 5618 5626 5634 5639 5643 5644 5643 5647 5655 5662 5670 5677 5681 5687 5695 5703 5711 5716 5718 5721 5727 5733 5738 5742 5747 5752 5756 5761 5766 5770 5773 5778 5782 5785 5788 5792 5796 5801 5804 5807 5810 5813 5817 5820 5823 5825 5827 5829 5833 5836 5836 5837 5838 5839 5840 5842 5844 5845 5846 5848 5851 5852 5853 5852 5855 5859 5861 5862 5863 5864 5865 5867 5869 5870 5871 5872
5518 5523 5530 5538 5549 5559 5567 5575 5584 5594 5603 5610 5615 5621 5628 5634 5638 5639 5641 5646 5651 5659 5667 5672 5678 5684 5689 5698 5708 5712 5712 5718 5726 5731 5736 5740 5744 5749 5753 5758 5762 5765 5770 5776 5780 5783 5786 5791 5796 5799 5801 5804 5807 5811 5815 5818 5821 5823 5825 5827 5831 5833 5833 5834 5835 5836 5837 5839 5841 5843 5843 5845 5848 5850 5851 5851 5852 5855 5857 5858 5860 5861 5862 5864 5866 5867 5868 5869
5516 5519 5525 5533 5544 5554 5563 5571 5580 5590 5598 5604 5610 5616 5622 5628 5632 5634 5638 5643 5646 5655 5662 5666 5671 5676 5684 5694 5698 5701 5707 5714 5719 5726 5733 5739 5744 5748 5752 5755 5758 5763 5769 5773 5776 5779 5783 5788 5793 5795 5798 5801 5805 5809 5813 5816 5818 5820 5822 5825 5828 5830 5830 5831 5832 5833 5834 5835 5838 5840 5839 5842 5846 5846 5848 5848 5848 5851 5853 5854 5856 5857 5859 5860 5862 5864 5865 5866
5513 5517 5521 5529 5539 5549 5557 5566 5576 5585 5592 5598 5606 5613 5619 5623 5627 5630 5635 5639 5642 5648 5653 5657 5663 5670 5678 5683 5686 5693 5700 5704 5711 5720 5725 5731 5739 5746 5749 5752 5757 5762 5767 5770 5773 5775 5780 5785 5788 5791 5794 5798 5801 5805 5809 5812 5814 5817 5820 5823 5825 5825 5826 5828 5830 5830 5831 5832 5835 5836 5836 5839 5843 5843 5845 5846 5845 5847 5849 5850 5852 5853 5855 5857 5858 5860 5862 5863
5511 5514 5518 5526 5534 5542 5552 5563 5572 5580 5587 5594 5601 5607 5613 5618 5623 5627 5631 5634 5635 5640 5647 5652 5658 5665 5671 5676 5682 5686 5688 5696 5708 5714 5718 5725 5731 5737 5743 5748 5754 5759 5762 5765 5768 5772 5777 5781 5784 5788 5791 5794 5797 5802 5806 5809 5811 5814 5818 5820 5820 5821 5823 5825 5826 5826 5827 5829 5831 5833 5832 5834 5839 5841 5842 5843 5843 5843 5845 5847 5848 5849 5851 5853 5855 5856 5857 5859
5507 5511 5515 5522 5529 5536 5547 5558 5567 5575 5582 5589 5595 5601 5607 5612 5617 5621 5624 5624 5627 5635 5641 5646 5654 5662 5667 5673 5677 5678 5686 5698 5702 5703 5712 5720 5725 5730 5737 5743 5749 5754 5758 5761 5765 5770 5774 5777 5781 5786 5789 5792 5796 5801 5805 5807 5808 5811 5814 5815 5816 5817 5819 5821 5822 5822 5823 5825 5826 5829 5830 5829 5834 5840 5841 5841 5842 5842 5843 5844 5845 5846 5847 5849 5850 5852 5853 5854
5504 5508 5512 5518 5525 5533 5543 5553 5560 5567 5575 5581 5587 5594 5599 5604 5610 5613 5614 5615 5622 5630 5635 5641 5650 5655 5658 5664 5667 5672 5684 5691 5692 5701 5710 5712 5717 5725 5731 5737 5743 5747 5752 5757 5762 5767 5771 5774 5779 5783 5785 5790 5795 5797 5800 5802 5804 5806 5809 5811 5811 5812 5814 5816 5818 5819 5819 5820 5822 5826 5828 5826 5829 5838 5840 5839 5840 5841 5841 5842 5842 5842 5844 5845 5846 5847 5848 5849
5499 5505 5509 5514 5521 5529 5537 5547 5555 5562 5569 5575 5581 5588 5592 5597 5602 5603 5602 5608 5617 5624 5630 5636 5642 5644 5648 5655 5660 5667 5676 5680 5687 5699 5702 5704 5712 5720 5726 5732 5736 5741 5746 5750 5755 5761 5766 5770 5773 5776 5781 5787 5789 5791 5794 5796 5798 5800 5803 5805 5807 5807 5809 5811 5813 5815 5815 5816 5819 5823 5826 5825 5825 5833 5838 5838 5838 5839 5838 5838 5838 5838 5839 5840 5841 5842 5844 5845
5496 5501 5506 5511 5518 5524 5531 5541 5548 5555 5564 5571 5576 5581 5585 5589 5592 5591 5595 5606 5614 5618 5625 5630 5635 5638 5642 5649 5656 5664 5669 5675 5683 5687 5690 5700 5709 5713 5718 5723 5726 5732 5738 5743 5749 5755 5759 5763 5766 5772 5777 5781 5783 5786 5789 5791 5793 5795 5799 5801 5803 5804 5805 5807 5809 5810 5811 5812 5817 5822 5825 5824 5822 5828 5836 5837 5835 5835 5834 5834 5835 5834 5835 5836 5837 5838 5839 5841
5494 5499 5503 5508 5514 5520 5527 5535 5541 5549 5557 5563 5568 5572 5577 5580 5580 5583 5593 5604 5610 5613 5619 5625 5630 5635 5640 5649 5657 5660 5663 5670 5676 5681 5688 5697 5701 5707 5714 5718 5721 5726 5730 5738 5746 5750 5754 5758 5763 5768 5772 5775 5778 5781 5784 5787 5788 5791 5794 5796 5798 5799 5801 5803 5805 5806 5808 5810 5816 5821 5823 5822 5821 5823 5831 5833 5831 5831 5832 5832 5832 5831 5831 5832 5833 5834 5836 5837
5492 5497 5501 5505 5510 5515 5521 5528 5536 5543 5547 5552 5557 5563 5569 5570 5572 5581 5593 5599 5604 5610 5616 5622 5629 5634 5639 5646 5650 5653 5660 5668 5672 5678 5687 5693 5696 5703 5710 5714 5720 5725 5731 5738 5742 5744 5748 5752 5757 5762 5766 5770 5773 5776 5780 5782 5784 5787 5790 5793 5795 5798 5800 5802 5804 5806 5807 5809 5814 5819 5819 5818 5818 5819 5823 5827 5828 5828 5828 5829 5828 5828 5828 5828 5829 5830 5831 5833
5490 5494 5498 5502 5506 5510 5516 5522 5531 5537 5540 5545 5550 5554 5559 5563 5571 5584 5592 5595 5601 5609 5614 5620 5627 5632 5637 5641 5643 5649 5656 5662 5668 5675 5679 5682 5687 5694 5700 5708 5716 5724 5731 5736 5738 5742 5746 5750 5756 5760 5763 5767 5769 5772 5776 5779 5781 5784 5788 5791 5793 5796 5798 5799 5802 5803 5804 5807 5810 5813 5814 5813 5815 5817 5818 5821 5823 5823 5824 5824 5824 5825 5825 5825 5826 5826 5827 5829
5488 5491 5495 5499 5501 5506 5511 5517 5524 5530 5534 5539 5543 5546 5550 5558 5571 5581 5586 5592 5600 5606 5611 5618 5624 5628 5633 5636 5641 5647 5650 5655 5663 5669 5672 5676 5681 5688 5696 5705 5713 5719 5724 5728 5735 5742 5746 5750 5757 5760 5763 5766 5767 5770 5773 5775 5776 5779 5781 5784 5787 5791 5792 5794 5796 5798 5800 5801 5803 5806 5809 5810 5813 5816 5815 5815 5817 5819 5819 5820 5821 5821 5822 5822 5822 5823 5823 5824
5484 5487 5491 5495 5498 5501 5505 5511 5517 5522 5528 5533 5536 5540 5546 5557 5569 5577 5583 5592 5598 5603 5609 5614 5619 5623 5626 5630 5636 5641 5646 5653 5659 5662 5667 5675 5682 5688 5696 5703 5708 5712 5718 5725 5732 5738 5741 5745 5751 5754 5757 5759 5761 5765 5768 5769 5772 5774 5777 5780 5784 5788 5789 5791 5792 5794 5796 5796 5798 5801 5805 5807 5810 5811 5811 5811 5813 5815 5815 5816 5817 5817 5818 5819 5819 5819 5820 5820
5480 5484 5488 5491 5493 5496 5500 5505 5510 5515 5521 5525 5530 5536 5544 5554 5564 5572 5580 5589 5594 5600 5605 5608 5612 5616 5619 5623 5628 5634 5641 5650 5655 5658 5663 5670 5676 5682 5691 5699 5705 5711 5719 5726 5730 5733 5736 5740 5745 5747 5749 5752 5755 5757 5760 5762 5765 5769 5773 5778 5782 5784 5786 5788 5789 5790 5791 5791 5793 5797 5800 5803 5805 5806 5808 5809 5809 5811 5812 5812 5813 5814 5814 5815 5815 5816 5816 5817
5477 5481 5484 5486 5487 5491 5496 5499 5505 5510 5515 5518 5525 5535 5544 5552 5560 5568 5577 5584 5589 5595 5599 5603 5608 5613 5615 5620 5624 5629 5637 5644 5647 5653 5661 5667 5672 5679 5687 5695 5703 5710 5717 5721 5724 5728 5732 5736 5740 5742 5744 5747 5750 5751 5754 5757 5761 5765 5770 5775 5776 5777 5780 5783 5783 5785 5786 5787 5789 5793 5796 5799 5801 5803 5805 5806 5805 5807 5808 5808 5809 5809 5810 5811 5811 5812 5813 5814
5475 5479 5480 5480 5483 5487 5491 5495 5500 5504 5507 5512 5521 5531 5541 5550 5557 5564 5572 5579 5585 5591 5595 5600 5606 5609 5613 5619 5623 5629 5636 5639 5642 5649 5657 5664 5671 5680 5687 5694 5700 5706 5710 5714 5717 5722 5726 5729 5732 5736 5739 5741 5743 5745 5750 5755 5759 5762 5766 5769 5769 5771 5775 5777 5778 5781 5783 5784 5786 5789 5791 5795 5799 5801 5801 5802 5802 5802 5803 5803 5804 5804 5804 5805 5807 5808 5809 5810
5473 5476 5476 5476 5479 5483 5486 5490 5494 5497 5502 5511 5521 5531 5541 5549 5555 5561 5568 5575 5580 5586 5592 5598 5603 5607 5611 5617 5622 5629 5635 5636 5641 5649 5655 5662 5670 5677 5683 5689 5695 5701 5706 5708 5711 5715 5720 5722 5725 5729 5731 5733 5736 5742 5747 5751 5754 5757 5761 5763 5765 5767 5771 5773 5775 5778 5780 5782 5783 5785 5787 5792 5796 5798 5798 5798 5798 5797 5797 5798 5799 5799 5800 5801 5803 5804 5804 5805
5470 5473 5473 5474 5477 5479 5482 5486 5490 5495 5502 5510 5519 5528 5537 5544 5550 5557 5564 5570 5576 5583 5590 5594 5598 5604 5610 5614 5620 5627 5630 5632 5639 5647 5652 5659 5666 5672 5679 5685 5690 5694 5698 5700 5705 5709 5713 5717 5720 5723 5725 5729 5734 5740 5744 5746 5750 5753 5756 5759 5763 5765 5768 5770 5772 5775 5776 5777 5780 5781 5783 5787 5792 5794 5794 5794 5794 5794 5793 5793 5794 5794 5795 5797 5798 5799 5800 5800
5466 5469 5469 5472 5475 5477 5481 5486 5491 5496 5502 5509 5518 5526 5533 5540 5547 5553 5559 5566 5573 5579 5585 5590 5595 5600 5606 5613 5619 5622 5625 5630 5637 5644 5651 5659 5666 5672 5678 5681 5685 5689 5692 5696 5701 5704 5707 5711 5713 5717 5721 5726 5730 5735 5738 5741 5744 5747 5749 5754 5757 5758 5761 5763 5764 5768 5771 5772 5775 5776 5776 5781 5787 5790 5790 5791 5791 5791 5789 5788 5788 5789 5790 5792 5793 5794 5795 5796
5463 5464 5465 5469 5472 5474 5478 5484 5488 5494 5501 5509 5516 5522 5528 5535 5541 5546 5553 5560 5568 5574 5581 5587 5592 5597 5602 5609 5615 5618 5623 5629 5636 5643 5652 5659 5664 5669 5673 5676 5679 5683 5686 5690 5695 5699 5703 5705 5706 5711 5716 5720 5724 5729 5732 5734 5737 5740 5745 5750 5750 5752 5755 5756 5758 5763 5764 5766 5769 5768 5769 5778 5786 5788 5787 5787 5787 5786 5784 5783 5784 5784 5786 5787 5788 5789 5790 5790
5458 5461 5462 5465 5467 5470 5476 5481 5487 5494 5502 5506 5509 5514 5520 5526 5532 5539 5546 5554 5563 5571 5578 5585 5590 5595 5601 5606 5611 5615 5621 5627 5633 5641 5648 5653 5658 5662 5667 5670 5673 5677 5683 5688 5692 5697 5698 5697 5700 5706 5708 5710 5715 5720 5722 5726 5730 5735 5740 5742 5742 5745 5748 5748 5752 5755 5755 5759 5763 5762 5767 5778 5784 5785 5784 5782 5781 5779 5778 5779 5779 5780 5782 5783 5783 5783 5784 5785
5452 5456 5458 5460 5462 5467 5475 5481 5488 5495 5501 5503 5506 5511 5517 5522 5528 5535 5543 5551 5560 5569 5576 5584 5590 5594 5598 5602 5608 5613 5618 5623 5628 5634 5640 5647 5653 5657 5661 5665 5670 5676 5682 5686 5689 5692 5692 5693 5698 5700 5700 5703 5709 5713 5719 5723 5726 5729 5731 5734 5737 5739 5741 5744 5747 5747 5751 5758 5761 5763 5771 5778 5779 5779 5778 5777 5775 5773 5773 5774 5774 5776 5778 5778 5778 5779 5779 5779
5447 5451 5454 5457 5461 5465 5472 5478 5483 5489 5493 5496 5501 5507 5512 5518 5526 5533 5540 5547 5556 5563 5571 5580 5586 5589 5593 5597 5602 5607 5612 5617 5622 5628 5635 5641 5647 5653 5658 5662 5668 5673 5677 5679 5683 5687 5688 5691 5696 5698 5701 5708 5712 5716 5722 5725 5725 5728 5731 5734 5735 5735 5738 5741 5741 5745 5754 5759 5759 5764 5770 5772 5772 5772 5771 5771 5770 5768 5768 5769 5770 5770 5772 5773 5774 5774 5774 5774
5441 5447 5452 5456 5459 5463 5469 5473 5478 5484 5489 5493 5498 5503 5508 5515 5522 5527 5534 5542 5551 5559 5567 5574 5578 5582 5588 5593 5596 5602 5608 5612 5617 5624 5630 5636 5643 5649 5653 5657 5662 5667 5671 5674 5677 5682 5684 5687 5692 5697 5701 5706 5708 5714 5720 5722 5724 5728 5731 5732 5733 5734 5736 5737 5738 5747 5754 5752 5754 5761 5763 5764 5767 5766 5765 5766 5766 5762 5761 5762 5764 5765 5766 5768 5769 5769 5769 5768
5437 5445 5451 5453 5455 5459 5465 5471 5477 5484 5488 5491 5497 5501 5506 5513 5517 5522 5529 5539 5547 5553 5559 5566 5571 5577 5585 5590 5593 5598 5603 5606 5612 5618 5623 5631 5638 5643 5647 5651 5655 5660 5665 5669 5672 5677 5680 5685 5691 5694 5696 5699 5703 5707 5712 5715 5718 5721 5723 5725 5727 5729 5730 5732 5737 5745 5746 5744 5750 5757 5756 5757 5761 5760 5759 5761 5760 5757 5756 5756 5759 5761 5763 5763 5763 5763 5763 5763
5433 5441 5446 5448 5451 5457 5465 5472 5477 5480 5483 5487 5492 5496 5502 5508 5514 5520 5528 5535 5540 5545 5552 5560 5569 5578 5584 5587 5589 5592 5596 5602 5608 5615 5621 5628 5634 5638 5642 5646 5651 5656 5661 5665 5669 5674 5677 5681 5686 5689 5692 5696 5699 5702 5705 5709 5711 5713 5715 5718 5720 5721 5724 5728 5734 5739 5737 5738 5746 5749 5748 5751 5755 5754 5755 5755 5755 5755 5753 5752 5754 5756 5756 5756 5756 5757 5757 5758
5429 5436 5442 5446 5450 5456 5462 5467 5471 5473 5477 5481 5484 5491 5498 5504 5511 5519 5524 5528 5534 5541 5547 5557 5569 5578 5582 5585 5587 5590 5597 5604 5611 5618 5623 5627 5630 5634 5639 5644 5650 5654 5656 5660 5665 5669 5672 5677 5680 5683 5686 5689 5692 5696 5699 5702 5704 5707 5710 5712 5714 5716 5719 5724 5730 5731 5728 5733 5742 5743 5743 5749 5752 5751 5750 5751 5751 5751 5749 5748 5749 5748 5748 5749 5751 5753 5754 5755
5427 5432 5437 5440 5445 5451 5454 5459 5464 5468 5471 5475 5479 5487 5494 5499 5509 5517 5521 5525 5532 5539 5547 5558 5570 5578 5581 5584 5588 5594 5602 5609 5614 5619 5623 5625 5630 5635 5638 5642 5645 5648 5651 5655 5658 5662 5665 5669 5673 5677 5678 5681 5687 5690 5692 5695 5698 5698 5700 5706 5710 5714 5717 5721 5725 5724 5724 5732 5740 5738 5739 5747 5750 5747 5746 5747 5746 5745 5744 5743 5742 5741 5741 5744 5748 5749 5750 5751
5423 5426 5429 5433 5439 5444 5447 5452 5458 5460 5464 5470 5478 5485 5491 5498 5508 5514 5516 5521 5528 5536 5546 5558 5567 5572 5575 5581 5591 5601 5607 5609 5610 5614 5616 5620 5625 5629 5633 5638 5640 5643 5646 5650 5653 5656 5659 5662 5667 5671 5672 5676 5681 5682 5686 5689 5686 5687 5696 5706 5709 5711 5714 5717 5719 5721 5724 5730 5733 5733 5737 5744 5745 5742 5741 5741 5739 5740 5740 5737 5735 5735 5737 5739 5743 5744 5745 5747